QPF
0.00 0.00 0.00 0.00 0.00 0.00 0.00 0.00 0.00 0.00 0.00 0.00 0.00 0.00 0.01 0.01 0.00 0.03 0.02 0.00 0.00 0.00 0.00 0.00 0.00 0.00 0.01 0.02 0.04 0.02 0.01 0.03 0.03 0.04 0.05 0.06 0.03 0.01 0.00 0.00 0.00 0.00 0.00 0.00 0.00 0.00 0.00 0.00 0.00 0.00 0.00 0.00 0.00 0.00
0.00 0.00 0.00 0.00 0.00 0.00 0.00 0.00 0.00 0.00 0.00 0.00 0.00 0.00 0.01 0.01 0.00 0.03 0.02 0.00 0.00 0.00 0.00 0.00 0.00 0.00 0.00 0.01 0.03 0.01 0.01 0.01 0.04 0.06 0.06 0.03 0.02 0.01 0.00 0.00 0.00 0.00 0.00 0.00 0.00 0.00 0.00 0.00 0.00 0.00 0.00 0.00 0.00 0.00
0.00 0.00 0.00 0.00 0.00 0.00 0.00 0.00 0.00 0.00 0.00 0.00 0.00 0.00 0.01 0.01 0.01 0.03 0.02 0.00 0.00 0.00 0.00 0.00 0.00 0.00 0.00 0.00 0.01 0.01 0.00 0.00 0.00 0.00 0.00 0.01 0.01 0.01 0.01 0.00 0.00 0.00 0.00 0.00 0.00 0.00 0.00 0.00 0.00 0.00 0.00 0.00 0.00 0.00
0.00 0.00 0.00 0.00 0.00 0.00 0.00 0.00 0.00 0.00 0.00 0.00 0.00 0.00 0.01 0.01 0.00 0.01 0.00 0.00 0.00 0.00 0.00 0.00 0.00 0.00 0.00 0.00 0.00 0.00 0.00 0.00 0.00 0.01 0.02 0.01 0.00 0.00 0.00 0.00 0.00 0.00 0.00 0.00 0.00 0.00 0.00 0.00 0.00 0.00 0.00 0.00 0.00 0.00
0.00 0.00 0.00 0.00 0.00 0.00 0.00 0.00 0.00 0.00 0.00 0.00 0.00 0.00 0.00 0.00 0.00 0.02 0.01 0.00 0.00 0.00 0.00 0.00 0.00 0.00 0.00 0.00 0.00 0.00 0.00 0.01 0.02 0.02 0.01 0.01 0.01 0.01 0.00 0.00 0.00 0.00 0.00 0.00 0.00 0.00 0.00 0.00 0.00 0.00 0.00 0.00 0.00 0.00
0.00 0.00 0.00 0.00 0.00 0.00 0.00 0.00 0.00 0.00 0.00 0.00 0.00 0.00 0.00 0.00 0.00 0.02 0.02 0.00 0.01 0.00 0.00 0.00 0.00 0.00 0.00 0.00 0.00 0.00 0.01 0.02 0.02 0.00 0.00 0.01 0.01 0.01 0.01 0.00 0.00 0.00 0.00 0.00 0.00 0.00 0.00 0.00 0.00 0.00 0.00 0.00 0.00 0.00
0.00 0.00 0.00 0.00 0.00 0.00 0.00 0.00 0.00 0.00 0.00 0.00 0.00 0.00 0.00 0.00 0.00 0.00 0.00 0.00 0.00 0.00 0.00 0.00 0.00 0.00 0.00 0.00 0.00 0.00 0.01 0.01 0.01 0.00 0.00 0.00 0.00 0.01 0.00 0.00 0.00 0.00 0.00 0.00 0.00 0.00 0.00 0.00 0.00 0.00 0.00 0.00 0.00 0.00
0.00 0.00 0.00 0.00 0.00 0.00 0.00 0.00 0.00 0.00 0.00 0.00 0.00 0.00 0.00 0.00 0.00 0.01 0.00 0.00 0.00 0.00 0.00 0.00 0.00 0.00 0.00 0.00 0.00 0.00 0.00 0.00 0.00 0.00 0.00 0.00 0.00 0.00 0.00 0.00 0.00 0.00 0.02 0.02 0.00 0.00 0.00 0.00 0.00 0.00 0.00 0.00 0.00 0.00
0.00 0.00 0.00 0.00 0.00 0.00 0.00 0.00 0.00 0.00 0.00 0.00 0.00 0.00 0.00 0.00 0.00 0.01 0.00 0.00 0.00 0.00 0.00 0.00 0.00 0.00 0.00 0.00 0.00 0.00 0.00 0.00 0.00 0.00 0.00 0.00 0.00 0.00 0.01 0.01 0.01 0.01 0.03 0.01 0.00 0.00 0.00 0.00 0.00 0.00 0.00 0.00 0.00 0.00
0.00 0.00 0.00 0.00 0.00 0.00 0.00 0.00 0.00 0.00 0.00 0.00 0.00 0.00 0.00 0.00 0.00 0.00 0.00 0.00 0.00 0.00 0.00 0.00 0.00 0.00 0.00 0.00 0.00 0.00 0.00 0.00 0.01 0.02 0.01 0.00 0.00 0.01 0.01 0.02 0.02 0.01 0.02 0.00 0.00 0.00 0.00 0.00 0.00 0.00 0.00 0.00 0.00 0.00
0.00 0.00 0.00 0.00 0.00 0.00 0.00 0.00 0.00 0.00 0.00 0.00 0.00 0.00 0.00 0.00 0.00 0.00 0.00 0.00 0.00 0.00 0.03 0.00 0.00 0.00 0.00 0.00 0.00 0.00 0.01 0.01 0.02 0.01 0.01 0.01 0.00 0.01 0.01 0.01 0.02 0.02 0.01 0.01 0.00 0.01 0.02 0.02 0.01 0.01 0.00 0.00 0.02 0.02
0.00 0.00 0.00 0.00 0.00 0.00 0.00 0.00 0.00 0.00 0.00 0.00 0.00 0.00 0.00 0.00 0.00 0.00 0.00 0.00 0.00 0.01 0.04 0.02 0.05 0.01 0.00 0.00 0.00 0.05 0.07 0.03 0.02 0.00 0.00 0.01 0.03 0.03 0.01 0.01 0.02 0.02 0.02 0.02 0.02 0.01 0.00 0.01 0.01 0.01 0.01 0.01 0.01 0.02
0.00 0.00 0.00 0.00 0.00 0.00 0.00 0.00 0.00 0.00 0.00 0.00 0.00 0.00 0.00 0.00 0.00 0.00 0.00 0.00 0.00 0.00 0.00 0.00 0.07 0.06 0.04 0.04 0.07 0.06 0.02 0.02 0.00 0.01 0.01 0.04 0.05 0.03 0.03 0.00 0.01 0.02 0.01 0.01 0.02 0.01 0.00 0.00 0.00 0.00 0.00 0.00 0.01 0.01
0.00 0.00 0.00 0.00 0.00 0.00 0.00 0.00 0.00 0.00 0.00 0.00 0.00 0.00 0.00 0.00 0.00 0.00 0.00 0.00 0.00 0.00 0.00 0.00 0.03 0.04 0.01 0.01 0.01 0.03 0.03 0.00 0.01 0.02 0.03 0.04 0.04 0.03 0.03 0.00 0.00 0.01 0.01 0.01 0.01 0.01 0.00 0.00 0.00 0.00 0.00 0.00 0.00 0.00
0.00 0.00 0.00 0.00 0.00 0.00 0.00 0.00 0.00 0.00 0.00 0.00 0.00 0.00 0.00 0.00 0.00 0.00 0.00 0.00 0.00 0.00 0.00 0.00 0.00 0.00 0.00 0.00 0.00 0.00 0.02 0.01 0.01 0.03 0.03 0.00 0.02 0.04 0.02 0.00 0.00 0.00 0.00 0.00 0.00 0.00 0.01 0.00 0.00 0.00 0.00 0.00 0.00 0.00
0.00 0.00 0.00 0.00 0.00 0.00 0.00 0.00 0.00 0.00 0.00 0.00 0.00 0.00 0.00 0.00 0.00 0.00 0.00 0.00 0.00 0.00 0.00 0.00 0.00 0.00 0.00 0.00 0.00 0.00 0.01 0.00 0.01 0.03 0.02 0.00 0.03 0.04 0.01 0.00 0.00 0.00 0.00 0.00 0.00 0.00 0.00 0.00 0.00 0.00 0.00 0.00 0.00 0.00
0.00 0.00 0.00 0.00 0.00 0.00 0.00 0.00 0.00 0.00 0.00 0.00 0.00 0.00 0.00 0.00 0.00 0.00 0.00 0.00 0.00 0.00 0.00 0.00 0.00 0.00 0.00 0.00 0.01 0.01 0.02 0.03 0.03 0.01 0.01 0.01 0.03 0.02 0.00 0.00 0.00 0.00 0.00 0.00 0.00 0.00 0.00 0.00 0.00 0.00 0.00 0.00 0.00 0.00
0.00 0.00 0.00 0.00 0.00 0.00 0.00 0.00 0.00 0.00 0.00 0.00 0.00 0.00 0.00 0.00 0.00 0.00 0.00 0.00 0.00 0.00 0.00 0.00 0.00 0.00 0.00 0.00 0.00 0.00 0.00 0.00 0.00 0.00 0.00 0.00 0.00 0.00 0.00 0.00 0.00 0.00 0.00 0.00 0.00 0.00 0.00 0.00 0.00 0.00 0.00 0.00 0.00 0.00
0.00 0.00 0.00 0.00 0.00 0.00 0.00 0.00 0.00 0.00 0.00 0.00 0.00 0.00 0.00 0.00 0.00 0.00 0.00 0.00 0.00 0.00 0.00 0.00 0.00 0.00 0.00 0.00 0.00 0.00 0.00 0.00 0.00 0.00 0.00 0.00 0.00 0.00 0.00 0.00 0.00 0.00 0.00 0.00 0.00 0.00 0.00 0.00 0.00 0.00 0.00 0.00 0.00 0.00
0.00 0.00 0.00 0.00 0.00 0.00 0.00 0.00 0.00 0.00 0.00 0.00 0.00 0.00 0.00 0.00 0.00 0.00 0.00 0.00 0.00 0.00 0.00 0.00 0.00 0.00 0.00 0.00 0.00 0.00 0.00 0.00 0.00 0.00 0.00 0.00 0.00 0.00 0.00 0.00 0.00 0.00 0.00 0.00 0.00 0.00 0.00 0.00 0.00 0.00 0.00 0.00 0.00 0.00
0.00 0.00 0.00 0.00 0.00 0.00 0.00 0.00 0.00 0.00 0.00 0.00 0.00 0.00 0.00 0.00 0.00 0.00 0.00 0.00 0.00 0.00 0.00 0.00 0.00 0.00 0.00 0.00 0.00 0.00 0.00 0.00 0.00 0.00 0.00 0.00 0.00 0.00 0.00 0.00 0.00 0.00 0.00 0.00 0.00 0.00 0.00 0.00 0.00 0.00 0.00 0.00 0.00 0.00
0.00 0.00 0.00 0.00 0.00 0.00 0.00 0.00 0.00 0.00 0.00 0.00 0.00 0.00 0.00 0.00 0.00 0.00 0.00 0.00 0.00 0.00 0.00 0.00 0.00 0.00 0.00 0.00 0.00 0.00 0.00 0.00 0.00 0.00 0.00 0.00 0.00 0.00 0.00 0.00 0.00 0.00 0.00 0.00 0.00 0.00 0.00 0.00 0.00 0.00 0.00 0.00 0.00 0.00
0.00 0.00 0.00 0.00 0.00 0.00 0.00 0.00 0.00 0.00 0.00 0.00 0.00 0.00 0.00 0.00 0.00 0.00 0.00 0.00 0.00 0.00 0.00 0.00 0.00 0.00 0.00 0.00 0.00 0.00 0.00 0.00 0.00 0.00 0.00 0.00 0.00 0.00 0.00 0.00 0.00 0.00 0.00 0.00 0.00 0.00 0.00 0.00 0.00 0.00 0.00 0.00 0.00 0.00
0.00 0.00 0.00 0.00 0.00 0.00 0.00 0.00 0.00 0.00 0.00 0.00 0.00 0.00 0.00 0.00 0.00 0.00 0.00 0.00 0.00 0.00 0.00 0.00 0.00 0.00 0.00 0.00 0.00 0.00 0.00 0.00 0.00 0.00 0.00 0.00 0.00 0.00 0.00 0.00 0.00 0.00 0.00 0.00 0.00 0.00 0.00 0.00 0.00 0.00 0.00 0.00 0.00 0.00
0.00 0.00 0.00 0.00 0.00 0.00 0.00 0.00 0.00 0.00 0.00 0.00 0.00 0.00 0.00 0.00 0.00 0.00 0.00 0.00 0.00 0.00 0.00 0.00 0.00 0.00 0.00 0.00 0.00 0.00 0.00 0.00 0.00 0.00 0.00 0.00 0.00 0.00 0.00 0.00 0.00 0.00 0.00 0.00 0.00 0.00 0.00 0.00 0.00 0.00 0.00 0.00 0.00 0.00
0.00 0.00 0.00 0.00 0.00 0.00 0.00 0.00 0.00 0.00 0.00 0.00 0.00 0.00 0.00 0.00 0.00 0.00 0.00 0.00 0.00 0.00 0.00 0.00 0.00 0.00 0.00 0.00 0.00 0.00 0.00 0.00 0.00 0.00 0.00 0.00 0.00 0.00 0.00 0.00 0.00 0.00 0.00 0.00 0.00 0.00 0.00 0.00 0.00 0.00 0.00 0.00 0.00 0.00
0.00 0.00 0.00 0.00 0.00 0.00 0.00 0.00 0.00 0.00 0.00 0.00 0.00 0.00 0.00 0.01 0.00 0.00 0.00 0.00 0.00 0.00 0.00 0.00 0.00 0.00 0.00 0.00 0.00 0.00 0.00 0.00 0.00 0.00 0.00 0.00 0.00 0.00 0.00 0.00 0.00 0.00 0.00 0.00 0.00 0.00 0.00 0.00 0.00 0.00 0.00 0.00 0.00 0.00
0.00 0.00 0.00 0.00 0.00 0.00 0.00 0.00 0.00 0.00 0.00 0.00 0.00 0.00 0.02 0.01 0.00 0.00 0.00 0.00 0.00 0.00 0.00 0.00 0.00 0.00 0.00 0.00 0.00 0.00 0.00 0.00 0.00 0.00 0.00 0.00 0.00 0.00 0.00 0.00 0.00 0.00 0.00 0.00 0.00 0.00 0.00 0.00 0.00 0.00 0.00 0.00 0.00 0.00
0.00 0.01 0.00 0.00 0.00 0.00 0.02 0.02 0.01 0.00 0.00 0.00 0.00 0.00 0.00 0.00 0.00 0.00 0.00 0.00 0.00 0.00 0.00 0.00 0.00 0.00 0.00 0.00 0.00 0.00 0.00 0.00 0.00 0.00 0.00 0.00 0.00 0.00 0.00 0.00 0.00 0.00 0.00 0.00 0.00 0.00 0.00 0.00 0.00 0.00 0.00 0.00 0.00 0.00
0.01 0.01 0.00 0.00 0.00 0.00 0.00 0.00 0.00 0.00 0.00 0.00 0.00 0.00 0.00 0.00 0.00 0.00 0.00 0.00 0.00 0.00 0.00 0.00 0.00 0.00 0.00 0.00 0.00 0.00 0.00 0.00 0.00 0.00 0.00 0.00 0.00 0.00 0.00 0.00 0.00 0.00 0.00 0.00 0.00 0.00 0.00 0.00 0.00 0.00 0.00 0.00 0.00 0.00
0.00 0.00 0.00 0.00 0.00 0.00 0.00 0.00 0.00 0.00 0.00 0.00 0.00 0.00 0.00 0.00 0.01 0.00 0.00 0.00 0.00 0.00 0.00 0.00 0.00 0.00 0.00 0.00 0.00 0.00 0.00 0.00 0.00 0.00 0.00 0.00 0.00 0.00 0.00 0.00 0.00 0.00 0.00 0.00 0.00 0.00 0.00 0.00 0.00 0.00 0.00 0.00 0.00 0.00
0.00 0.00 0.00 0.00 0.00 0.00 0.00 0.00 0.00 0.00 0.00 0.00 0.00 0.00 0.00 0.01 0.05 0.03 0.00 0.00 0.00 0.00 0.00 0.00 0.00 0.00 0.00 0.00 0.00 0.00 0.00 0.00 0.00 0.00 0.00 0.00 0.00 0.00 0.00 0.00 0.00 0.00 0.00 0.00 0.00 0.00 0.00 0.00 0.00 0.00 0.00 0.00 0.00 0.00
0.00 0.00 0.00 0.00 0.00 0.00 0.00 0.00 0.00 0.00 0.00 0.00 0.00 0.00 0.00 0.00 0.02 0.00 0.00 0.00 0.00 0.00 0.00 0.00 0.00 0.00 0.00 0.00 0.00 0.00 0.00 0.00 0.00 0.00 0.00 0.00 0.00 0.00 0.00 0.00 0.00 0.00 0.00 0.00 0.00 0.00 0.00 0.00 0.01 0.01 0.01 0.00 0.00 0.00
MSLP
1025.57 1024.98 1024.50 1023.98 1023.36 1022.79 1022.31 1021.75 1021.11 1020.78 1020.32 1019.93 1019.48 1019.13 1018.76 1018.47 1018.30 1018.28 1017.73 1018.04 1018.46 1018.05 1016.95 1016.35 1015.81 1015.75 1015.24 1014.62 1013.89 1012.73 1011.86 1011.70 1009.91 1009.74 1009.50 1008.87 1006.60 1005.37 1002.82 1000.92 1000.71 1000.31 1000.50 1000.26 999.44 997.72 995.90 995.66 994.02 993.97 995.45 995.79 995.60 995.57
1025.02 1024.49 1023.94 1023.34 1022.72 1022.11 1021.66 1021.01 1020.55 1020.11 1019.56 1019.19 1018.69 1018.34 1017.97 1017.73 1017.57 1017.46 1017.20 1017.18 1017.53 1017.88 1016.76 1015.97 1015.55 1015.24 1014.96 1014.34 1014.06 1013.91 1013.05 1012.57 1011.87 1011.81 1011.35 1010.16 1008.64 1006.55 1004.54 1002.78 1001.97 1002.18 1001.48 1000.14 999.54 998.32 996.67 996.70 996.53 996.69 996.67 996.94 997.27 997.44
1024.40 1023.86 1023.26 1022.59 1021.96 1021.49 1020.99 1020.43 1019.92 1019.36 1018.92 1018.42 1017.89 1017.57 1017.21 1016.95 1016.79 1016.79 1016.66 1017.06 1017.51 1017.51 1016.70 1015.83 1014.23 1013.48 1013.64 1013.69 1013.33 1014.05 1013.25 1013.03 1012.82 1012.75 1012.22 1011.41 1010.18 1008.40 1006.69 1004.71 1004.25 1003.09 1002.75 1001.64 1000.90 999.64 998.73 998.00 997.83 997.81 998.05 998.07 998.18 998.47
1023.85 1023.18 1022.59 1021.98 1021.42 1020.97 1020.36 1019.75 1019.17 1018.76 1018.28 1017.75 1017.29 1016.87 1016.53 1016.25 1016.06 1016.20 1016.59 1016.99 1017.20 1017.34 1016.71 1014.34 1013.27 1013.46 1013.36 1013.22 1013.62 1013.68 1013.62 1013.62 1013.89 1014.29 1014.14 1013.48 1012.13 1010.62 1009.39 1007.77 1006.18 1005.30 1004.43 1003.41 1002.38 1001.60 1000.45 999.36 999.17 998.99 998.97 999.11 999.20 999.33
1023.20 1022.54 1021.97 1021.47 1020.95 1020.33 1019.66 1019.01 1018.62 1018.20 1017.69 1017.21 1016.64 1016.24 1015.97 1015.73 1015.68 1015.61 1015.77 1016.28 1016.58 1017.23 1016.62 1015.05 1014.25 1014.19 1013.95 1013.81 1013.73 1013.47 1013.91 1014.55 1015.02 1015.42 1015.46 1015.05 1014.37 1013.50 1011.58 1009.78 1007.62 1006.61 1005.83 1005.07 1003.57 1002.96 1002.27 1001.10 1000.42 999.94 999.71 999.54 999.45 999.59
1022.59 1021.90 1021.45 1020.91 1020.37 1019.65 1019.01 1018.51 1018.16 1017.69 1017.18 1016.67 1016.12 1015.80 1015.58 1015.47 1015.68 1015.19 1015.54 1015.86 1016.22 1017.07 1016.87 1015.56 1014.07 1014.30 1014.22 1014.25 1014.40 1014.68 1015.03 1015.28 1015.63 1016.08 1016.28 1015.80 1015.41 1015.34 1013.82 1011.40 1009.13 1008.19 1007.48 1006.76 1005.38 1004.67 1003.72 1002.78 1001.91 1001.31 1000.63 1000.14 999.69 999.75
1021.99 1021.42 1020.90 1020.32 1019.75 1019.07 1018.44 1018.05 1017.73 1017.23 1016.75 1016.31 1015.98 1015.67 1015.56 1015.55 1015.23 1015.38 1016.15 1016.42 1016.54 1016.87 1016.77 1015.77 1014.41 1014.34 1014.38 1014.45 1014.93 1015.27 1015.49 1015.86 1016.32 1016.71 1016.61 1016.25 1015.91 1015.70 1014.55 1012.29 1009.62 1008.37 1007.26 1006.27 1005.65 1005.41 1003.84 1002.65 1002.05 1001.95 1001.54 1000.75 1000.12 999.77
1021.50 1020.94 1020.30 1019.78 1019.25 1018.53 1018.04 1017.63 1017.23 1016.77 1016.37 1016.17 1015.98 1015.85 1015.80 1015.71 1015.91 1016.28 1016.43 1016.66 1016.57 1016.58 1016.58 1015.91 1014.78 1014.05 1014.44 1014.36 1014.88 1015.66 1015.56 1015.99 1016.29 1016.41 1016.52 1016.22 1016.01 1015.59 1014.13 1011.56 1008.72 1005.59 1004.34 1003.70 1002.96 1002.58 1001.77 1001.75 1002.21 1001.77 1001.42 1001.06 1000.81 1000.03
1020.99 1020.45 1019.75 1019.30 1018.77 1018.16 1017.62 1017.16 1016.69 1016.27 1016.06 1016.10 1016.20 1016.16 1015.91 1016.05 1015.62 1016.12 1016.79 1016.86 1016.42 1016.20 1015.72 1015.62 1015.12 1014.16 1014.27 1014.38 1014.52 1015.05 1015.38 1015.22 1015.54 1015.66 1015.77 1015.83 1015.18 1014.30 1013.08 1010.67 1008.57 1006.46 1004.63 1003.11 1002.01 1000.81 999.51 1000.82 1001.55 1001.39 1001.28 1001.23 1001.32 1000.71
1020.52 1019.95 1019.27 1018.80 1018.26 1017.76 1017.21 1016.74 1016.24 1016.02 1015.96 1016.17 1016.25 1015.47 1015.33 1015.54 1016.35 1016.60 1016.95 1016.48 1016.04 1015.52 1015.14 1014.41 1014.51 1013.93 1014.05 1013.59 1013.73 1013.89 1014.07 1013.60 1013.42 1013.35 1014.32 1014.57 1014.24 1013.71 1011.98 1010.87 1009.55 1007.24 1005.11 1003.57 1002.09 1001.50 1001.50 1001.60 1001.53 1001.36 1001.32 1001.53 1001.58 1001.41
1019.95 1019.43 1018.84 1018.22 1017.66 1017.18 1016.81 1016.42 1016.10 1016.02 1016.03 1015.50 1014.66 1013.68 1015.31 1016.31 1016.02 1015.48 1014.73 1014.48 1013.80 1013.39 1013.03 1012.13 1012.36 1012.54 1012.68 1012.69 1012.56 1012.30 1011.87 1011.99 1011.44 1011.55 1012.24 1013.50 1013.37 1012.64 1011.38 1010.22 1009.70 1008.64 1006.77 1005.21 1003.77 1002.79 1002.35 1002.23 1002.09 1002.09 1001.99 1001.83 1001.99 1002.09
1019.40 1018.93 1018.40 1017.75 1017.13 1016.49 1016.28 1016.08 1015.98 1015.89 1013.87 1014.22 1013.76 1013.35 1014.17 1014.44 1013.94 1013.32 1013.42 1013.46 1013.02 1011.74 1010.68 1010.17 1010.73 1011.50 1010.83 1011.62 1011.70 1010.59 1009.92 1009.61 1010.15 1011.21 1012.69 1013.20 1013.48 1012.48 1011.26 1010.22 1009.50 1009.01 1008.43 1007.18 1005.86 1004.77 1004.23 1004.00 1003.79 1003.51 1002.99 1002.58 1003.28 1003.49
1018.96 1018.36 1017.81 1017.34 1016.71 1015.91 1015.69 1015.60 1015.51 1015.18 1014.91 1013.44 1013.18 1012.49 1012.17 1012.30 1012.27 1012.72 1012.57 1012.00 1011.30 1010.33 1009.36 1008.65 1009.51 1009.79 1009.42 1009.70 1009.82 1009.08 1008.66 1009.63 1009.89 1011.84 1013.35 1013.58 1013.34 1012.50 1011.57 1010.47 1009.51 1009.02 1008.92 1008.75 1008.13 1007.39 1006.49 1006.15 1005.81 1005.88 1005.21 1004.49 1003.54 1003.98
1018.50 1017.83 1017.25 1016.76 1016.24 1015.72 1015.10 1015.08 1014.98 1015.09 1014.89 1012.16 1011.83 1012.33 1011.46 1010.93 1010.43 1010.19 1010.10 1009.82 1009.16 1008.59 1008.16 1007.88 1008.55 1009.08 1008.06 1008.43 1008.86 1009.39 1009.79 1010.13 1011.23 1012.90 1013.37 1013.33 1013.24 1012.81 1011.95 1011.14 1010.27 1009.49 1009.17 1008.92 1009.02 1009.15 1009.01 1008.50 1007.96 1007.27 1006.59 1005.58 1005.07 1005.72
1018.01 1017.30 1016.67 1015.98 1015.56 1015.07 1014.69 1014.53 1014.60 1014.37 1012.62 1011.67 1011.42 1011.43 1010.77 1010.20 1009.55 1009.45 1009.21 1008.84 1008.40 1007.69 1007.23 1007.83 1007.56 1007.44 1007.93 1008.92 1009.68 1010.77 1010.89 1012.41 1013.52 1013.78 1013.56 1013.10 1013.22 1012.95 1012.26 1011.44 1010.90 1010.39 1009.88 1009.34 1009.09 1008.99 1009.24 1009.46 1009.05 1008.75 1008.34 1007.97 1007.48 1007.32
1017.32 1016.38 1015.74 1015.64 1015.01 1014.26 1013.81 1013.53 1014.09 1012.44 1011.65 1011.14 1010.92 1010.78 1010.56 1010.19 1009.83 1009.54 1009.26 1008.82 1008.52 1007.43 1006.56 1007.17 1007.81 1008.56 1009.19 1009.92 1010.60 1011.62 1012.62 1013.41 1013.84 1014.00 1013.84 1013.08 1013.28 1013.03 1012.36 1011.71 1011.14 1010.77 1010.32 1010.02 1009.49 1009.17 1008.90 1008.81 1008.90 1009.13 1009.15 1009.18 1009.48 1009.57
1017.02 1015.56 1015.66 1015.16 1014.67 1013.68 1012.85 1012.88 1011.68 1011.81 1011.32 1010.70 1010.48 1010.67 1010.73 1010.70 1010.42 1010.00 1009.67 1009.26 1008.68 1007.94 1007.52 1007.36 1008.38 1009.70 1010.56 1011.04 1011.99 1012.60 1012.88 1013.07 1013.25 1013.09 1013.11 1013.07 1013.11 1012.91 1012.44 1011.79 1011.17 1010.90 1010.53 1010.21 1009.81 1009.56 1009.10 1008.91 1008.81 1009.26 1009.33 1009.42 1009.53 1009.45
1015.98 1014.52 1015.21 1015.33 1015.17 1013.40 1011.78 1011.51 1011.46 1011.20 1010.83 1010.58 1010.24 1010.43 1010.66 1010.82 1010.72 1010.34 1010.08 1009.77 1009.22 1008.75 1008.60 1008.82 1009.23 1009.89 1011.05 1011.92 1012.18 1012.46 1012.39 1012.42 1012.66 1012.71 1012.55 1012.62 1012.49 1012.22 1012.07 1011.60 1011.25 1010.88 1010.51 1010.36 1009.95 1009.39 1009.56 1009.18 1008.86 1009.04 1009.25 1009.35 1009.37 1009.15
1016.50 1016.23 1015.78 1015.62 1015.82 1014.74 1011.77 1011.53 1011.39 1010.65 1010.54 1010.48 1010.39 1010.25 1010.43 1010.45 1010.75 1010.50 1010.37 1010.24 1009.95 1009.69 1009.66 1009.48 1010.13 1011.07 1011.81 1012.60 1013.02 1012.97 1012.94 1013.02 1012.78 1012.26 1011.75 1011.73 1012.01 1011.61 1011.58 1011.45 1011.21 1010.83 1010.53 1010.34 1010.37 1009.73 1009.51 1009.54 1009.56 1009.41 1009.26 1009.32 1009.64 1009.71
1016.15 1015.60 1015.31 1015.23 1015.38 1013.55 1011.48 1011.25 1011.31 1010.50 1010.13 1010.55 1010.50 1010.78 1010.77 1010.33 1010.34 1010.32 1010.34 1010.47 1010.38 1010.40 1010.69 1011.02 1011.63 1012.40 1012.90 1013.48 1013.76 1013.77 1013.63 1013.88 1013.32 1012.55 1012.02 1011.88 1011.58 1011.45 1011.22 1011.33 1011.33 1010.83 1010.58 1010.40 1010.32 1010.46 1010.01 1009.91 1009.84 1009.99 1010.04 1010.06 1010.05 1010.13
1014.96 1014.47 1014.22 1014.18 1013.43 1012.52 1011.62 1010.82 1010.62 1010.78 1010.45 1010.14 1010.10 1010.58 1010.49 1010.14 1009.84 1010.24 1010.40 1010.54 1010.80 1011.27 1011.52 1012.18 1012.56 1013.03 1013.78 1014.15 1014.17 1014.37 1014.12 1014.29 1013.76 1013.12 1012.67 1012.34 1012.29 1011.41 1011.35 1011.24 1011.23 1011.11 1010.87 1010.79 1010.53 1010.72 1011.14 1011.26 1010.85 1010.61 1010.71 1010.46 1010.64 1010.84
1014.33 1014.37 1013.95 1013.05 1012.33 1011.77 1011.30 1011.02 1010.89 1010.79 1010.49 1010.08 1010.02 1010.06 1009.89 1010.10 1009.96 1010.53 1010.87 1010.27 1010.91 1011.85 1012.39 1012.66 1013.33 1013.65 1013.50 1013.88 1014.09 1014.19 1014.28 1014.23 1013.62 1012.83 1012.66 1012.47 1012.03 1011.54 1011.28 1011.40 1011.26 1011.26 1011.38 1011.38 1011.23 1011.13 1011.65 1011.96 1011.92 1011.30 1011.33 1011.15 1011.06 1011.47
1014.74 1014.68 1013.37 1012.31 1011.98 1012.09 1011.82 1011.04 1010.54 1010.20 1010.15 1010.07 1009.83 1009.80 1009.79 1009.77 1010.09 1010.70 1010.32 1010.25 1010.73 1011.65 1012.12 1012.83 1013.27 1013.49 1013.57 1013.43 1013.17 1013.41 1013.72 1013.68 1013.15 1012.81 1012.59 1012.53 1012.36 1011.92 1011.73 1011.49 1011.42 1011.51 1011.78 1011.66 1011.43 1011.48 1011.73 1012.19 1012.05 1011.89 1012.07 1012.17 1011.80 1011.69
1015.22 1014.04 1012.58 1011.64 1011.54 1011.42 1010.66 1010.16 1009.80 1009.79 1009.69 1010.06 1009.78 1009.75 1009.77 1009.79 1010.14 1010.18 1009.69 1009.78 1010.44 1011.16 1011.96 1012.55 1012.52 1012.23 1012.48 1013.07 1012.46 1012.65 1013.18 1013.24 1013.06 1012.89 1012.67 1012.85 1012.68 1012.37 1012.11 1011.84 1011.78 1011.88 1012.50 1012.40 1011.91 1011.80 1011.91 1012.06 1012.28 1012.35 1012.65 1013.14 1012.81 1012.31
1014.87 1013.94 1013.01 1012.16 1011.39 1010.61 1009.87 1009.58 1009.43 1009.18 1009.08 1009.00 1008.96 1009.23 1009.24 1009.46 1009.71 1009.35 1009.11 1009.13 1009.82 1010.60 1011.45 1011.94 1012.36 1012.47 1012.46 1012.30 1012.38 1012.71 1013.25 1013.43 1013.46 1013.36 1013.09 1013.53 1013.29 1013.01 1012.66 1012.58 1012.44 1012.88 1013.15 1012.92 1012.53 1012.29 1012.32 1012.40 1012.57 1012.76 1012.97 1013.41 1013.35 1012.90
1014.11 1012.47 1012.32 1010.56 1010.10 1010.05 1009.63 1009.42 1008.98 1008.76 1008.55 1008.62 1008.43 1008.83 1008.80 1008.48 1009.02 1009.00 1008.66 1009.23 1009.79 1010.57 1011.35 1012.09 1012.15 1012.43 1012.40 1012.49 1012.52 1012.94 1013.41 1013.90 1014.20 1013.99 1014.08 1014.24 1014.05 1013.98 1013.88 1013.60 1013.35 1013.60 1014.13 1013.69 1013.32 1013.05 1012.94 1012.97 1012.99 1013.08 1013.08 1013.50 1013.92 1013.72
1012.38 1010.49 1010.19 1010.10 1010.10 1009.79 1009.46 1009.27 1008.80 1008.41 1008.66 1008.96 1008.09 1008.04 1009.79 1011.20 1010.30 1009.40 1009.54 1009.57 1009.72 1010.70 1011.68 1012.52 1013.26 1013.29 1012.98 1012.83 1013.17 1013.17 1013.42 1013.66 1014.34 1014.50 1014.51 1014.59 1014.41 1014.46 1014.67 1014.44 1014.53 1015.23 1014.86 1014.36 1014.19 1014.06 1013.94 1013.82 1013.79 1013.75 1013.85 1014.17 1014.58 1014.48
1010.39 1009.82 1009.65 1009.54 1009.35 1009.24 1010.01 1010.85 1011.41 1010.52 1010.07 1009.83 1007.88 1008.39 1009.51 1010.16 1010.12 1009.63 1009.01 1009.27 1009.80 1010.81 1011.85 1012.55 1012.87 1012.99 1012.84 1013.25 1013.31 1013.61 1013.51 1013.44 1013.48 1013.61 1013.48 1013.91 1014.12 1014.36 1014.64 1014.70 1014.92 1015.32 1015.14 1015.20 1015.37 1014.96 1015.08 1014.83 1014.66 1014.63 1014.62 1014.91 1015.10 1015.16
1010.05 1010.33 1009.74 1008.69 1008.88 1009.08 1010.41 1011.42 1011.03 1009.62 1008.71 1007.95 1007.61 1007.82 1008.41 1010.80 1010.94 1011.70 1010.11 1009.75 1010.25 1011.08 1011.90 1012.43 1012.36 1012.63 1012.67 1012.51 1012.75 1012.92 1012.93 1013.05 1013.50 1013.73 1013.77 1013.81 1014.06 1014.34 1014.78 1015.05 1015.16 1015.17 1015.19 1015.55 1016.19 1016.11 1016.18 1015.86 1015.82 1015.75 1015.45 1015.31 1015.33 1015.38
1009.00 1009.30 1008.78 1008.00 1007.79 1008.25 1009.19 1008.98 1008.12 1007.08 1006.84 1007.19 1007.44 1007.87 1008.88 1010.36 1010.78 1010.95 1010.36 1010.74 1010.75 1010.77 1011.34 1011.79 1011.74 1011.87 1012.17 1012.21 1012.36 1012.78 1012.79 1012.74 1013.47 1014.28 1014.55 1014.54 1014.71 1014.90 1015.27 1015.50 1015.64 1015.68 1015.76 1015.66 1015.82 1016.18 1016.53 1016.17 1016.10 1016.04 1015.84 1015.85 1015.81 1015.71
1008.19 1007.92 1007.70 1007.70 1007.57 1006.91 1007.51 1007.32 1006.58 1006.25 1006.62 1006.90 1008.28 1009.50 1010.82 1011.76 1012.72 1012.05 1011.82 1011.60 1011.11 1011.12 1011.26 1011.41 1011.76 1012.18 1012.47 1012.82 1013.18 1013.65 1013.81 1013.99 1014.59 1015.15 1015.52 1015.36 1015.43 1015.67 1015.89 1015.95 1016.02 1016.03 1016.18 1016.23 1016.31 1016.30 1016.35 1016.31 1016.33 1016.36 1016.52 1016.52 1016.51 1016.43
1007.52 1007.26 1007.05 1006.70 1006.42 1006.21 1006.19 1006.73 1006.55 1006.33 1006.38 1006.95 1007.33 1008.10 1009.25 1010.75 1011.27 1011.35 1012.21 1011.70 1011.12 1011.07 1012.00 1011.92 1012.25 1013.04 1013.71 1013.96 1014.19 1014.57 1015.41 1015.45 1015.89 1016.11 1016.57 1016.76 1016.85 1016.90 1016.71 1016.36 1016.15 1016.09 1016.14 1016.22 1016.34 1016.54 1016.78 1016.82 1016.83 1016.83 1016.81 1016.87 1016.84 1016.80
1006.70 1006.97 1006.54 1006.61 1006.20 1006.02 1006.40 1006.47 1006.45 1006.44 1006.83 1007.52 1009.07 1010.00 1009.32 1010.03 1010.82 1011.57 1012.25 1012.39 1012.48 1012.30 1012.41 1012.85 1013.40 1013.98 1014.53 1014.62 1015.00 1014.81 1015.59 1016.73 1017.25 1017.55 1017.75 1018.06 1018.20 1018.14 1017.51 1017.32 1017.24 1016.84 1016.54 1016.78 1017.13 1017.03 1017.13 1017.20 1017.26 1017.26 1017.17 1017.07 1017.06 1016.93
Thickness
5558 5556 5554 5552 5551 5549 5545 5542 5539 5535 5533 5531 5529 5527 5522 5518 5512 5507 5506 5494 5482 5475 5474 5472 5469 5458 5458 5458 5452 5468 5472 5465 5483 5482 5484 5484 5517 5525 5563 5588 5582 5597 5596 5602 5620 5635 5645 5686 5710 5693 5693 5712 5726 5734
5557 5556 5554 5553 5551 5550 5546 5544 5541 5537 5536 5534 5533 5530 5526 5522 5517 5512 5510 5502 5491 5478 5482 5479 5473 5468 5464 5465 5459 5457 5466 5466 5472 5465 5474 5490 5501 5525 5542 5557 5586 5575 5583 5602 5619 5635 5678 5674 5674 5684 5691 5695 5701 5712
5558 5556 5555 5554 5552 5550 5548 5546 5543 5542 5540 5539 5537 5533 5529 5526 5523 5517 5513 5504 5493 5484 5483 5481 5489 5488 5480 5474 5473 5457 5468 5469 5470 5472 5477 5485 5491 5514 5521 5542 5544 5564 5569 5573 5590 5617 5633 5648 5657 5665 5668 5675 5687 5696
5558 5558 5556 5554 5551 5549 5549 5548 5547 5545 5543 5541 5539 5535 5532 5531 5528 5521 5514 5505 5498 5488 5483 5503 5502 5493 5488 5481 5474 5472 5470 5470 5467 5463 5461 5468 5482 5499 5505 5521 5535 5546 5554 5563 5569 5586 5604 5628 5639 5646 5655 5667 5675 5685
5560 5560 5557 5553 5550 5547 5547 5548 5548 5547 5546 5544 5541 5540 5537 5535 5531 5526 5520 5511 5504 5495 5497 5501 5500 5494 5490 5484 5479 5478 5473 5463 5456 5450 5449 5455 5462 5468 5490 5509 5525 5533 5539 5544 5565 5578 5583 5603 5623 5634 5639 5652 5667 5678
5562 5562 5558 5554 5549 5548 5548 5549 5550 5551 5550 5548 5546 5544 5543 5539 5534 5532 5524 5518 5510 5500 5496 5503 5514 5501 5495 5488 5480 5471 5465 5461 5457 5449 5446 5452 5456 5451 5466 5487 5513 5516 5523 5533 5551 5562 5572 5591 5603 5618 5628 5641 5662 5668
5564 5563 5561 5558 5555 5555 5555 5555 5555 5555 5555 5553 5550 5549 5546 5540 5540 5539 5528 5519 5513 5507 5506 5510 5521 5515 5506 5500 5487 5479 5473 5463 5454 5446 5445 5444 5445 5447 5454 5475 5498 5504 5513 5521 5528 5530 5551 5579 5592 5601 5614 5632 5647 5662
5567 5567 5567 5564 5563 5563 5562 5561 5560 5561 5561 5558 5555 5551 5548 5545 5540 5534 5528 5522 5519 5518 5513 5515 5526 5528 5515 5514 5506 5486 5480 5469 5461 5456 5449 5449 5447 5446 5462 5483 5512 5541 5547 5548 5546 5546 5557 5562 5564 5583 5601 5615 5627 5649
5571 5571 5572 5571 5570 5569 5568 5566 5565 5566 5566 5561 5555 5551 5552 5550 5550 5543 5531 5528 5527 5529 5524 5518 5518 5534 5526 5519 5513 5500 5488 5491 5477 5471 5462 5456 5456 5470 5476 5498 5512 5524 5533 5537 5537 5544 5568 5555 5557 5573 5586 5597 5606 5626
5574 5575 5577 5577 5576 5574 5573 5573 5571 5570 5569 5564 5559 5566 5563 5561 5546 5541 5536 5537 5539 5539 5535 5538 5527 5530 5526 5531 5528 5522 5509 5518 5519 5516 5486 5484 5483 5493 5498 5499 5502 5511 5521 5527 5534 5535 5534 5541 5552 5562 5570 5579 5592 5606
5579 5579 5581 5583 5583 5582 5581 5579 5577 5574 5571 5575 5578 5583 5565 5553 5551 5555 5565 5563 5565 5558 5559 5565 5556 5547 5544 5541 5542 5539 5541 5534 5538 5534 5525 5505 5494 5502 5511 5510 5503 5501 5510 5515 5523 5531 5541 5548 5553 5557 5562 5567 5574 5584
5582 5583 5584 5587 5588 5589 5587 5585 5581 5577 5593 5586 5586 5584 5575 5573 5577 5579 5568 5564 5560 5563 5580 5578 5570 5557 5562 5549 5543 5556 5560 5564 5546 5544 5512 5495 5500 5509 5516 5517 5515 5510 5504 5509 5516 5523 5528 5530 5535 5540 5547 5553 5548 5555
5585 5588 5589 5589 5591 5595 5593 5591 5589 5586 5583 5589 5589 5589 5590 5587 5565 5554 5551 5562 5565 5578 5587 5591 5575 5570 5576 5571 5565 5573 5572 5554 5562 5529 5498 5504 5508 5513 5514 5520 5522 5520 5514 5509 5506 5510 5518 5518 5519 5518 5526 5533 5546 5548
5588 5592 5594 5595 5596 5597 5599 5596 5592 5588 5584 5599 5593 5562 5587 5584 5590 5589 5585 5584 5590 5592 5592 5593 5582 5574 5586 5577 5574 5559 5560 5558 5538 5510 5510 5512 5510 5509 5513 5515 5517 5520 5521 5517 5512 5506 5501 5506 5512 5516 5523 5532 5539 5535
5591 5595 5598 5600 5601 5602 5602 5599 5595 5591 5604 5597 5597 5570 5588 5599 5604 5600 5598 5594 5594 5599 5597 5583 5588 5592 5582 5568 5563 5547 5543 5515 5505 5506 5511 5516 5511 5509 5510 5515 5515 5515 5515 5516 5517 5515 5510 5505 5507 5507 5511 5515 5518 5525
5596 5601 5601 5602 5605 5608 5608 5606 5601 5610 5607 5604 5601 5593 5597 5594 5594 5594 5592 5589 5593 5598 5604 5594 5581 5568 5561 5555 5546 5532 5518 5508 5507 5505 5505 5513 5506 5505 5509 5511 5512 5512 5513 5512 5515 5514 5516 5518 5516 5514 5512 5509 5507 5508
5598 5609 5603 5604 5606 5611 5615 5613 5618 5605 5604 5605 5601 5602 5596 5590 5587 5589 5589 5588 5594 5592 5584 5588 5568 5553 5553 5541 5528 5526 5518 5518 5515 5515 5509 5508 5504 5501 5505 5508 5511 5509 5510 5512 5513 5513 5516 5517 5516 5509 5509 5510 5511 5513
5605 5610 5604 5602 5602 5612 5624 5623 5614 5609 5603 5606 5601 5599 5596 5592 5586 5587 5588 5588 5587 5584 5581 5571 5572 5557 5541 5528 5528 5529 5529 5527 5521 5517 5514 5508 5506 5506 5505 5506 5507 5508 5507 5507 5511 5516 5512 5515 5517 5513 5511 5512 5513 5514
5599 5599 5601 5601 5598 5604 5619 5617 5615 5607 5607 5607 5606 5606 5600 5595 5591 5590 5587 5585 5584 5583 5576 5571 5558 5545 5539 5532 5525 5524 5522 5516 5514 5516 5518 5515 5508 5508 5504 5503 5503 5503 5504 5503 5499 5506 5510 5510 5509 5512 5513 5512 5509 5509
5603 5605 5606 5605 5602 5614 5618 5615 5617 5611 5606 5603 5604 5595 5592 5594 5594 5590 5585 5580 5576 5571 5561 5553 5545 5539 5532 5525 5520 5516 5514 5507 5507 5509 5510 5509 5510 5506 5504 5498 5495 5499 5500 5499 5498 5492 5497 5497 5500 5501 5501 5502 5503 5502
5610 5612 5613 5611 5619 5620 5618 5617 5611 5608 5607 5603 5606 5596 5592 5596 5593 5584 5579 5579 5568 5557 5551 5547 5542 5537 5527 5520 5517 5510 5508 5501 5500 5502 5501 5500 5498 5503 5500 5498 5493 5491 5491 5491 5491 5486 5480 5477 5482 5485 5485 5489 5490 5488
5616 5613 5614 5620 5619 5619 5617 5618 5609 5609 5605 5605 5601 5599 5592 5584 5585 5578 5575 5573 5562 5553 5547 5543 5534 5528 5526 5517 5512 5507 5502 5499 5500 5503 5497 5496 5495 5496 5494 5490 5488 5484 5480 5478 5478 5478 5472 5467 5465 5471 5471 5473 5476 5473
5610 5610 5617 5621 5613 5600 5597 5616 5606 5607 5596 5597 5600 5592 5589 5587 5584 5579 5571 5571 5565 5558 5551 5541 5532 5528 5522 5519 5517 5511 5504 5499 5498 5497 5494 5490 5487 5488 5485 5484 5481 5477 5471 5469 5470 5467 5464 5457 5458 5460 5458 5455 5458 5461
5607 5610 5613 5617 5613 5597 5616 5610 5614 5607 5605 5593 5591 5585 5587 5586 5585 5574 5570 5571 5565 5557 5545 5536 5534 5531 5524 5513 5515 5510 5500 5495 5491 5488 5486 5479 5475 5474 5473 5472 5470 5467 5458 5456 5459 5457 5455 5452 5448 5448 5445 5438 5441 5445
5595 5599 5599 5580 5612 5611 5611 5609 5608 5608 5601 5602 5597 5591 5590 5591 5577 5577 5574 5574 5567 5557 5546 5538 5529 5524 5517 5515 5509 5500 5492 5484 5478 5473 5472 5464 5461 5459 5458 5455 5453 5449 5443 5442 5443 5443 5441 5440 5437 5434 5433 5428 5427 5431
5581 5611 5592 5619 5618 5611 5612 5605 5608 5607 5609 5603 5603 5600 5597 5585 5576 5572 5579 5573 5564 5555 5544 5532 5527 5518 5512 5507 5500 5491 5482 5473 5464 5460 5454 5448 5444 5440 5437 5435 5434 5430 5423 5425 5426 5426 5425 5423 5422 5420 5420 5416 5408 5414
5590 5621 5626 5628 5619 5619 5616 5617 5619 5611 5604 5596 5604 5604 5577 5546 5564 5576 5573 5570 5563 5552 5541 5527 5514 5507 5503 5498 5488 5483 5474 5465 5456 5449 5444 5438 5434 5430 5423 5421 5417 5408 5408 5410 5409 5409 5408 5407 5406 5405 5403 5400 5396 5397
5626 5628 5617 5621 5620 5622 5604 5576 5568 5582 5584 5589 5611 5592 5576 5571 5572 5564 5573 5569 5562 5549 5533 5522 5512 5506 5500 5489 5483 5474 5469 5462 5455 5449 5445 5437 5431 5425 5417 5413 5407 5398 5399 5396 5393 5395 5391 5392 5393 5392 5391 5387 5384 5384
5621 5616 5620 5623 5620 5617 5596 5580 5576 5600 5608 5610 5605 5599 5596 5569 5562 5551 5567 5566 5557 5542 5527 5516 5511 5502 5495 5489 5479 5470 5464 5458 5447 5440 5435 5430 5423 5417 5410 5403 5398 5394 5391 5387 5375 5376 5375 5376 5376 5376 5378 5379 5378 5377
5628 5628 5624 5629 5625 5617 5609 5618 5619 5630 5631 5622 5614 5606 5589 5574 5569 5567 5564 5554 5546 5539 5527 5515 5510 5501 5491 5485 5478 5468 5462 5457 5445 5432 5423 5418 5412 5406 5398 5392 5387 5383 5379 5377 5374 5370 5363 5367 5366 5368 5369 5369 5369 5371
5638 5636 5630 5627 5623 5633 5628 5631 5637 5636 5628 5620 5597 5574 5565 5558 5543 5551 5545 5541 5540 5532 5524 5514 5504 5495 5485 5476 5467 5457 5449 5442 5432 5421 5411 5407 5401 5393 5386 5381 5376 5372 5368 5364 5361 5360 5360 5360 5359 5359 5357 5357 5357 5358
5638 5633 5631 5627 5631 5641 5641 5627 5626 5625 5623 5613 5603 5595 5585 5568 5559 5554 5542 5540 5535 5526 5509 5505 5496 5483 5473 5464 5456 5447 5430 5426 5415 5408 5399 5391 5384 5377 5373 5371 5368 5365 5360 5356 5353 5350 5347 5347 5347 5348 5348 5348 5349 5349
5640 5636 5638 5632 5632 5631 5629 5625 5621 5618 5615 5605 5577 5569 5582 5574 5558 5550 5540 5531 5521 5514 5506 5496 5486 5476 5465 5458 5447 5443 5428 5411 5398 5389 5383 5374 5367 5362 5362 5357 5352 5350 5348 5343 5337 5337 5336 5336 5336 5337 5339 5341 5342 5344